Regional Weather Roundup
Issued by NWS

Home | Current Version | Previous Version | Text Only | Print | Product List | Glossary Off
Versions: 1 2 3 4 5 6 7 8 9 10 11 12 13 14 15 16 17 18 19 20 21 22 23 24 25 26 27 28 29 30 31 32 33 34 35 36 37 38 39 40 41 42 43 44 45 46 47 48 49 50

000
ASUS43 KMKX 021100
RWRWI

WISCONSIN REGIONAL WEATHER ROUNDUP
NATIONAL WEATHER SERVICE MILWAUKEE/SULLIVAN WI
600 AM CDT TUE SEP 02 2014

NOTE: "FAIR" INDICATES FEW OR NO CLOUDS BELOW 12,000 FEET WITH NO
SIGNIFICANT WEATHER AND/OR OBSTRUCTIONS TO VISIBILITY.

WIZ001-002-006>008-014>016-023>028-021200-
NORTHWEST WISCONSIN

CITY           SKY/WX    TMP DP  RH WIND       PRES   REMARKS
SUPERIOR ARPT  MOCLDY    53  51  94 SW7       29.81S
ASHLAND        MOCLDY    54  52  93 W6        29.80S
HAYWARD        MOCLDY    50  49  96 CALM      29.84R
SIREN          CLOUDY    54  53  97 CALM      29.84R
RICE LAKE      CLOUDY    56  55  95 CALM      29.85S
LADYSMITH      CLOUDY    56  55  96 CALM      29.85S
EAU CLAIRE     NOT AVBL
MENOMONIE      CLOUDY    61  58  90 CALM      29.83S
NEW RICHMOND   CLOUDY    59  59  99 CALM      29.85R
OSCEOLA        CLOUDY    59  59 100 CALM      29.87S
$$

WIZ003>005-009-010-017-018-021200-
NORTH CENTRAL WISCONSIN

CITY           SKY/WX    TMP DP  RH WIND       PRES   REMARKS
WOODRUFF       CLEAR     55  53  94 CALM      29.82S
RHINELANDER    CLEAR     52  51  97 W6        29.84R
EAGLE RIVER    FOG       48  48 100 CALM      29.82S VSB 1/2
LAND O LAKES   FOG       44  44 100 CALM      29.83R VSB 3/4
PHILLIPS       CLOUDY    53  53  99 CALM      29.82S
TOMAHAWK       CLEAR     47  46  97 CALM      29.84S
MEDFORD        MOCLDY    55  55  97 CALM      29.84R
MERRILL        PTCLDY    48  48 100 CALM      29.85R
$$

WIZ029-030-035-036-043>047-021200-
CENTRAL WISCONSIN

CITY           SKY/WX    TMP DP  RH WIND       PRES   REMARKS
WAUSAU         CLEAR     57  55  93 S5        29.83S
MOSINEE        CLEAR     52  52 100 CALM      29.86R FOG
MARSHFIELD     PTCLDY    57  56  96 SW3       29.85S
STEVENS POINT  PTCLDY    51  51  99 CALM      29.85F
WAUPACA        CLEAR     56  55  95 CALM      29.85S FOG
WAUTOMA        NOT AVBL
WISC RAPIDS    FOG       54  53  97 CALM      29.87R VSB 3/4
CAMP DOUGLAS   PTCLDY    52  52 100 CALM      29.86R FOG
$$

WIZ011>013-019>022-031-037>040-048>050-021200-
NORTHEAST WISCONSIN

CITY           SKY/WX    TMP DP  RH WIND       PRES   REMARKS
ANTIGO         FOG       48  48 100 CALM      29.85R VSB 1
STURGEON BAY   CLEAR     59  54  82 SW6       29.83S
GREEN BAY      CLEAR     54  54 100 CALM      29.84R
MANITOWOC      NOT AVBL
APPLETON       PTCLDY    55  55 100 VRB5      29.85S
CLINTONVILLE   CLEAR     52  52 100 CALM      29.84R
OSHKOSH        CLEAR     60  58  92 SW3       29.85S
$$

WIZ032>034-041-042-053>061-021200-
SOUTHWEST WISCONSIN

CITY           SKY/WX    TMP DP  RH WIND       PRES   REMARKS
LA CROSSE      MOCLDY    62  60  93 S7        29.85S
SPARTA         MOCLDY    52  51  97 CALM      29.87R
VIROQUA        FAIR      58  58 100 SW5       29.88R
BOSCOBEL       FOG       58  56  93 CALM      29.88R VSB 1/2
PRAIRIE DU CHI MOCLDY    57  55  94 CALM      29.87S
PLATTEVILLE      N/A     56  55  97 CALM      29.89S VSB 1/4
$$

WIZ056-057-062-063-064-067-068-021200-
SOUTH CENTRAL WISCONSIN

CITY           SKY/WX    TMP DP  RH WIND       PRES   REMARKS
BARABOO/DELLS  CLEAR     56  54  93 CALM      29.87S
LONE ROCK      FOG       61  57  88 CALM      29.88R VSB 1/2
WATERTOWN      PTCLDY    55  55 100 CALM      29.87R
MADISON        PTCLDY    57  55  93 CALM      29.87S
MIDDLETON      PTSUNNY   57  57  99 CALM      29.88S VSB 1/2
MONROE         CLEAR     61  59  94 SW5       29.88S
JANESVILLE     FOG       61  59  94 CALM      29.87F VSB 3/4
$$

WIZ051-052-058>065-066-070>072-021200-
SOUTHEAST WISCONSIN

CITY           SKY/WX    TMP DP  RH WIND       PRES   REMARKS
MILWAUKEE      PTCLDY    65  61  87 CALM      29.87F
WAUKESHA       CLEAR     57  57 100 CALM      29.89S
MILWAUKEE/TIMM PTCLDY    61  59  94 CALM      29.87F
RACINE         PTCLDY    65  62  90 W7        29.88F
BURLINGTON     FOG       57  57 100 CALM      29.88S VSB 1/4
KENOSHA        FOG       61  61 100 W3        29.88R VSB 1/2
FOND DU LAC    CLEAR     56  55  97 S5        29.86S FOG
SHEBOYGAN      CLEAR     56  55  97 S3        29.86R
WEST BEND      FOG       57  55  94 CALM      29.87S VSB 3/4
JUNEAU         PTCLDY    56  56 100 CALM      29.88R FOG
$$

LSZ147-162-021200-
LAKE SUPERIOR

STATION/POSITION TIME  TEMP    WIND        PRES    WAVE
                       AIR SEA DIR/SP/G            HT/PER
                 (UTC) (F)     (DEG/KT/KT) (MB)    (FT/S)
W MID LAKE BUOY  0950   59 57  220/  8/ 10 1007.4R   1/ 3
DEVILS ISLAND    1000   62     250/ 15/ 19 1008.1R
PORT WING        1000   58     190/  6/  7 1009.1
SAXON HARBOR     1000   58     200/  5/  7 1008.5S
$$

LMZ867-665-643>646-021200-
LAKE MICHIGAN

STATION/POSITION TIME  TEMP    WIND        PRES    WAVE
                       AIR SEA DIR/SP/G            HT/PER
                 (UTC) (F)     (DEG/KT/KT) (MB)    (FT/S)
N MID LAKE BUOY  0950   65 65  260/ 12/ 14 1008.7R   2/ 6
NORTHPORT PIER   1000   61     250/  2/  7 1009.1R
KEWAUNEE LAKESHO 1000   59     300/  4/  5 1009.3R
SHEBOYGAN LAKESH 1000   63 48  240/  7/  8 1010.8R
ATWATER BUOY     1000   67     240/  6/  8 1012.6
MILWAUKEE LAKESH 1000   68     280/  6/  8   N/A
S MID LAKE BUOY  0950   69 70  270/  6/  8 1011.1R   1/ 4
KENOSHA   LAKESH 1000   67     280/  7/  9 1011.2S
$$

TC  - TEMPERATURE IN CELSIUS
VSB - VISIBILITY IN STATUTE MILES
WCI - WIND CHILL INDEX
HX  - HEAT INDEX




USA.gov is the U.S. government's official web portal to all federal, state and local government web resources and services.